Weather reports worldwide

Advertisment
Baltasound, United Kingdom (3002): temperature & dewpoint: 18.06.2018 15:00:00 - 24.06.2018 15:00:00 (BST)Baltasound, United Kingdom (3002): temperature -20cm: 18.06.2018 15:00:00 - 24.06.2018 15:00:00 (BST)Baltasound, United Kingdom (3002): wind speed & gusts: 18.06.2018 15:00:00 - 24.06.2018 15:00:00 (BST)Baltasound, United Kingdom (3002): wind direction: 18.06.2018 15:00:00 - 24.06.2018 15:00:00 (BST)Baltasound, United Kingdom (3002): reduced air pressure: 18.06.2018 15:00:00 - 24.06.2018 15:00:00 (BST)Baltasound, United Kingdom (3002): visibility: 18.06.2018 15:00:00 - 24.06.2018 15:00:00 (BST)Baltasound, United Kingdom (3002): precipitation: 18.06.2018 15:00:00 - 24.06.2018 15:00:00 (BST)
Date & Time tt [°C] td [°C] tt -20cm [°C] ff [km/h] ff [kn] fx [km/h] fx [kn] dd ppp [hPa] vv [km] rr [mm]
24.06.2018 15:00:00 12,8 10,7 - 41 22 55 30 W 1020,5 12 0,0
24.06.2018 14:00:00 12,5 10,6 - 39 21 57 31 W 1020,3 11 0,0
24.06.2018 13:00:00 12,5 10,1 - 42 23 59 32 WSW 1020,0 16 0,0
24.06.2018 12:00:00 12,1 9,7 - 41 22 57 31 W 1019,8 13 0,0
24.06.2018 11:00:00 11,9 9,8 - 41 22 59 32 WSW 1019,7 12 0,2
24.06.2018 10:00:00 11,7 10,0 12,2 41 22 55 30 WSW 1019,4 14 0,0
24.06.2018 09:00:00 11,3 10,0 - 39 21 52 28 WSW 1019,5 12 0,0
24.06.2018 08:00:00 10,9 10,0 - 37 20 48 26 WSW 1019,5 8 0,0
24.06.2018 07:00:00 10,8 10,3 - 35 19 46 25 WSW 1019,6 8 0,2
24.06.2018 06:00:00 10,8 10,4 - 35 19 46 25 W 1019,7 7 0,6
24.06.2018 05:00:00 10,7 10,4 - 34 18 46 25 W 1019,8 7 1,0
24.06.2018 04:00:00 10,6 10,4 - 35 19 46 25 W 1019,7 7 0,8
24.06.2018 03:00:00 10,6 10,4 - 31 17 - - W 1019,8 8 0,4
24.06.2018 02:00:00 10,5 10,5 - 28 15 - - W 1019,6 6 0,2
24.06.2018 01:00:00 10,5 10,5 - 22 12 - - W 1019,9 2,2 0,2
24.06.2018 00:00:00 10,6 10,6 - 22 12 - - W 1020,0 2,8 0,0
23.06.2018 23:00:00 10,5 10,5 - 18 10 - - W 1019,9 2,1 0,0
23.06.2018 22:00:00 10,5 10,4 - 21 11 - - W 1019,9 5 0,0
23.06.2018 21:00:00 10,6 10,5 - 24 13 - - W 1019,7 3,9 0,0
23.06.2018 20:00:00 10,6 10,5 - 26 14 - - W 1019,2 4,9 0,0
23.06.2018 19:00:00 10,7 10,5 - 24 13 - - W 1019,5 4,2 0,0
23.06.2018 18:00:00 10,9 10,8 - 24 13 - - W 1019,1 2,4 0,6
23.06.2018 17:00:00 11,1 10,7 - 28 15 - - W 1018,9 5 0,0
23.06.2018 16:00:00 11,3 10,8 - 31 17 - - W 1019,0 6 0,0
23.06.2018 15:00:00 12,0 11,5 - 28 15 - - W 1018,8 10 0,0
23.06.2018 14:00:00 11,5 11,2 - 31 17 - - W 1018,9 6 0,0
23.06.2018 13:00:00 11,3 11,0 - 31 17 - - W 1019,1 5 0,2
23.06.2018 12:00:00 11,2 10,8 - 35 19 48 26 W 1019,3 3,4 0,4
23.06.2018 11:00:00 11,1 10,8 - 37 20 52 28 W 1019,3 7 0,6
23.06.2018 10:00:00 10,6 10,3 12,0 41 22 55 30 W 1019,4 7 1,0
23.06.2018 09:00:00 10,5 10,1 - 39 21 55 30 W 1019,1 5 0,6
23.06.2018 08:00:00 10,5 10,2 - 41 22 52 28 W 1019,0 11 0,0
23.06.2018 07:00:00 10,5 10,3 - 34 18 48 26 W 1019,1 3,6 0,2
23.06.2018 06:00:00 10,2 10,0 - 35 19 48 26 W 1019,2 3,7 0,0
23.06.2018 05:00:00 10,2 9,9 - 34 18 46 25 W 1019,3 3,6 0,0
23.06.2018 04:00:00 10,1 9,9 - 35 19 46 25 W 1019,6 4,6 0,0
23.06.2018 03:00:00 10,1 9,8 - 39 21 50 27 W 1019,8 8 0,2
23.06.2018 02:00:00 10,1 9,9 - 37 20 52 28 W 1019,8 4,0 0,0
23.06.2018 01:00:00 10,1 9,9 - 37 20 52 28 W 1020,3 4,3 0,2
23.06.2018 00:00:00 10,1 9,8 - 35 19 48 26 W 1020,6 4,5 0,0
22.06.2018 23:00:00 10,1 9,8 - 35 19 50 27 W 1020,8 5 0,0
22.06.2018 22:00:00 10,0 9,7 - 31 17 - - W 1021,0 3,4 1,4
22.06.2018 21:00:00 10,0 9,7 - 28 15 - - W 1021,4 4,4 1,0
22.06.2018 20:00:00 10,2 9,6 - 31 17 48 26 W 1021,8 4,4 0,0
22.06.2018 19:00:00 10,5 8,9 - 34 18 50 27 W 1022,2 11 0,0
22.06.2018 18:00:00 10,7 8,8 - 35 19 52 28 W 1022,3 11 0,0
22.06.2018 17:00:00 11,3 8,8 - 37 20 50 27 W 1022,9 11 0,0
22.06.2018 16:00:00 11,9 9,5 - 35 19 54 29 W 1022,9 10 0,0
22.06.2018 15:00:00 11,4 9,8 - 37 20 48 26 W 1023,2 11 0,0
22.06.2018 14:00:00 10,3 9,5 - 31 17 48 26 W 1023,5 12 0,4
22.06.2018 13:00:00 10,2 9,4 - 31 17 - - WNW 1023,6 8 0,0
22.06.2018 12:00:00 10,6 10,0 - 29 16 - - WNW 1023,6 10 0,6
22.06.2018 11:00:00 10,8 10,3 - 29 16 - - WNW 1023,5 13 0,2
22.06.2018 10:00:00 10,6 9,5 12,0 24 13 - - WNW 1023,8 8 0,0
22.06.2018 09:00:00 11,4 8,1 - 29 16 - - WNW 1023,9 15 0,0
22.06.2018 08:00:00 10,1 7,4 - 28 15 - - WNW 1024,1 17 0,0
22.06.2018 07:00:00 10,4 7,4 - 31 17 - - WNW 1024,0 21 0,0
22.06.2018 06:00:00 9,7 4,9 - 28 15 - - NW 1024,1 27 0,0
22.06.2018 05:00:00 8,5 4,3 - 28 15 - - NW 1024,2 26 0,0
22.06.2018 04:00:00 7,7 3,7 - 28 15 - - NW 1024,2 22 0,0
22.06.2018 03:00:00 7,8 5,3 - 26 14 - - NW 1024,0 13 0,0
22.06.2018 02:00:00 7,7 4,9 - 26 14 46 25 NW 1023,8 14 0,0
22.06.2018 01:00:00 8,0 4,9 - 29 16 - - NW 1023,9 17 0,0
22.06.2018 00:00:00 8,2 5,0 - 29 16 52 28 NNW 1023,4 16 0,0
21.06.2018 23:00:00 8,3 5,8 - 34 18 54 29 NW 1023,2 13 0,0
21.06.2018 22:00:00 8,4 5,7 - 39 21 55 30 NNW 1022,4 22 0,0
21.06.2018 21:00:00 8,7 5,8 - 37 20 57 31 NW 1021,7 20 0,0
21.06.2018 20:00:00 8,3 6,4 - 41 22 59 32 NNW 1021,1 9 0,0
21.06.2018 19:00:00 8,3 6,7 - 41 22 57 31 NW 1020,2 9 0,0
21.06.2018 18:00:00 8,9 6,6 - 42 23 59 32 NW 1019,6 9 0,0
21.06.2018 17:00:00 8,7 6,3 - 41 22 61 33 NW 1019,0 10 0,0
21.06.2018 16:00:00 8,7 6,4 - 39 21 61 33 NNW 1018,4 14 0,0
21.06.2018 15:00:00 8,9 6,4 - 42 23 63 34 NNW 1017,5 12 0,0
21.06.2018 14:00:00 9,2 7,1 - 48 26 61 33 NW 1016,9 10 0,2
21.06.2018 13:00:00 9,3 7,6 - 44 24 61 33 NW 1015,9 18 0,4
21.06.2018 12:00:00 8,9 7,1 - 39 21 55 30 NW 1015,1 4,6 0,0
21.06.2018 11:00:00 9,1 6,6 - 41 22 54 29 NW 1014,6 24 0,0
21.06.2018 10:00:00 8,7 6,8 12,7 37 20 52 28 NW 1013,9 13 0,0
21.06.2018 09:00:00 8,1 6,7 - 34 18 46 25 NW 1013,6 3,4 0,0
21.06.2018 08:00:00 7,9 5,7 - 31 17 48 26 NW 1013,2 18 0,4
21.06.2018 07:00:00 7,7 6,8 - 31 17 48 26 NW 1013,0 12 0,8
21.06.2018 06:00:00 8,3 6,4 - 26 14 - - WNW 1013,0 25 0,0
21.06.2018 05:00:00 8,2 5,6 - 31 17 - - NW 1012,7 28 0,6
21.06.2018 04:00:00 8,2 6,2 - 22 12 - - WNW 1012,8 35 0,0
21.06.2018 03:00:00 8,0 5,3 - 18 10 - - WNW 1012,9 40 0,0
21.06.2018 02:00:00 8,6 5,3 - 21 11 - - WNW 1012,8 40 0,0
21.06.2018 01:00:00 8,1 5,2 - 18 10 - - WNW 1012,8 40 0,0
21.06.2018 00:00:00 7,5 4,9 - 15 8 - - WNW 1012,8 45 0,0
20.06.2018 23:00:00 7,5 4,9 - 13 7 - - WNW 1012,6 26 0,0
20.06.2018 22:00:00 7,8 4,2 - 9 5 - - W 1012,4 40 0,0
20.06.2018 21:00:00 8,6 4,5 - 13 7 - - W 1012,4 45 0,0
20.06.2018 20:00:00 9,5 5,3 - 15 8 - - W 1012,3 29 0,0
20.06.2018 19:00:00 11,0 5,0 - 21 11 - - W 1012,2 30 0,0
20.06.2018 18:00:00 10,7 5,7 - 21 11 - - W 1012,3 25 0,0
20.06.2018 17:00:00 11,3 5,3 - 26 14 - - W 1012,2 26 0,0
20.06.2018 16:00:00 11,4 5,0 - 26 14 - - W 1012,2 30 0,0
20.06.2018 15:00:00 12,3 5,3 - 26 14 - - WNW 1012,0 23 0,0
20.06.2018 14:00:00 11,7 5,8 - 24 13 - - WNW 1012,0 40 0,0
20.06.2018 13:00:00 12,2 5,4 - 21 11 - - W 1012,0 20 0,0
20.06.2018 12:00:00 12,1 4,8 - 24 13 - - W 1012,2 26 0,0
20.06.2018 11:00:00 11,6 5,4 - 24 13 - - W 1011,7 20 0,0
20.06.2018 10:00:00 11,2 4,8 12,5 22 12 - - W 1011,5 35 0,0
20.06.2018 09:00:00 10,0 4,7 - 21 11 - - W 1011,4 35 0,0
20.06.2018 08:00:00 10,5 5,1 - 18 10 - - W 1011,3 21 0,0
20.06.2018 07:00:00 10,0 5,4 - 16 9 - - W 1011,2 22 0,0
20.06.2018 06:00:00 9,3 5,5 - 16 9 - - W 1011,1 21 0,0
20.06.2018 05:00:00 8,3 4,8 - 21 11 - - W 1011,0 27 0,0
20.06.2018 04:00:00 8,1 4,9 - 21 11 - - W 1011,5 22 0,0
20.06.2018 03:00:00 8,1 5,9 - 21 11 - - W 1011,6 15 0,0
20.06.2018 02:00:00 8,0 5,3 - 24 13 - - W 1011,7 17 0,0
20.06.2018 01:00:00 8,4 5,9 - 29 16 - - WSW 1011,6 15 0,2
20.06.2018 00:00:00 9,3 6,2 - 31 17 48 26 WSW 1011,5 12 0,0
19.06.2018 23:00:00 9,2 5,6 - 34 18 54 29 W 1011,3 15 0,0
19.06.2018 22:00:00 9,4 5,6 - 39 21 57 31 WSW 1010,9 16 0,0
19.06.2018 21:00:00 10,2 5,8 - 41 22 61 33 WSW 1010,8 13 0,0
19.06.2018 20:00:00 10,8 5,6 - 46 25 65 35 WSW 1010,2 18 0,0
19.06.2018 19:00:00 11,3 5,9 - 48 26 68 37 W 1009,8 11 0,0
19.06.2018 18:00:00 12,0 6,2 - 52 28 72 39 W 1009,4 20 0,0
19.06.2018 17:00:00 11,2 6,1 - 48 26 76 41 WSW 1008,9 16 0,0
19.06.2018 16:00:00 12,5 5,2 - 59 32 83 45 W 1008,4 12 0,0
19.06.2018 15:00:00 12,2 4,7 - 57 31 76 41 W 1008,0 13 0,0
19.06.2018 14:00:00 11,1 5,8 - 54 29 74 40 W 1007,2 8 0,0
19.06.2018 13:00:00 12,4 6,5 - 55 30 80 43 W 1006,5 13 0,0
19.06.2018 12:00:00 11,5 5,8 - 57 31 87 47 W 1005,4 13 0,0
19.06.2018 11:00:00 10,2 6,6 - 54 29 83 45 W 1004,1 8 0,0
19.06.2018 10:00:00 10,5 6,5 12,9 57 31 80 43 W 1003,0 9 0,0
19.06.2018 09:00:00 10,4 6,7 - 54 29 80 43 W 1002,2 9 0,0
19.06.2018 08:00:00 10,3 7,1 - 59 32 83 45 W 1000,9 10 0,0
19.06.2018 07:00:00 10,0 7,7 - 55 30 87 47 W 999,7 9 0,0
19.06.2018 06:00:00 9,7 8,0 - 63 34 89 48 W 998,4 8 0,0
19.06.2018 05:00:00 9,8 7,6 - 63 34 87 47 WSW 997,6 2,7 0,2
19.06.2018 04:00:00 10,1 7,4 - 55 30 78 42 WSW 997,2 8 0,0
19.06.2018 03:00:00 9,9 8,4 - 57 31 81 44 WSW 996,7 7 1,2
19.06.2018 02:00:00 9,8 8,2 - 52 28 74 40 WSW 996,5 6 1,0
19.06.2018 01:00:00 9,6 7,4 - 50 27 70 38 SW 996,5 5 0,0
19.06.2018 00:00:00 9,4 6,2 - 41 22 65 35 SW 997,2 16 0,0
18.06.2018 23:00:00 9,9 7,4 - 39 21 57 31 SW 997,8 10 0,2
18.06.2018 22:00:00 9,8 6,9 - 41 22 65 35 SW 998,3 13 0,0
18.06.2018 21:00:00 10,1 6,9 - 44 24 68 37 SW 998,4 14 0,2
18.06.2018 20:00:00 9,6 7,5 - 48 26 72 39 SW 998,6 8 0,2
18.06.2018 19:00:00 10,8 7,1 - 44 24 72 39 SW 998,8 17 0,0
18.06.2018 18:00:00 10,4 8,3 - 44 24 67 36 SW 999,5 13 0,0
18.06.2018 17:00:00 11,9 7,2 - 54 29 74 40 SW 1000,0 15 0,0
18.06.2018 16:00:00 11,5 8,0 - 50 27 72 39 SW 1000,6 15 0,4
18.06.2018 15:00:00 12,2 7,0 - 50 27 72 39 SW 1000,8 13 0,0

tt = temperature
td = dewpoint
tt -20cm = temperature -20cm
ff = wind speed
fx = gusts
dd = wind direction
ppp = reduced air pressure
vv = visibility
rr = precipitation

Next stations